This is the latest recevied weather packets stored in our database for station/object N5COP-13. If no packets are shown the sender has not sent any weather packets the latest 1 day(s).
| Time | Temp. | Humidity | Pressure | Rain* | Wind** | Luminosity | Snow |
|---|---|---|---|---|---|---|---|
| 1778087934 | 14.44° C | 50% | 1017.1 hPa | 0 mm | - | 888 W/m² | - |
| 1778087630 | 13.89° C | 52% | 1017.1 hPa | 0 mm | - | 934 W/m² | - |
| 1778087328 | 12.78° C | 51% | 1017.1 hPa | 0 mm | - | 291 W/m² | - |
| 1778087024 | 13.33° C | 51% | 1017 hPa | 0 mm | - | 850 W/m² | - |
| 1778086718 | 13.89° C | 52% | 1017 hPa | 0 mm | - | 817 W/m² | - |
| 1778083983 | 11.67° C | 58% | 1016.9 hPa | 0 mm | - | 717 W/m² | - |
| 1778081638 | 10.56° C | 62% | 1016.5 hPa | 0 mm | - | 616 W/m² | - |
| 1778081335 | 10° C | 62% | 1016.8 hPa | 0 mm | - | 615 W/m² | - |
| 1778081032 | 10° C | 62% | 1016.6 hPa | 0 mm | - | 597 W/m² | - |
| 1778080731 | 10° C | 64% | 1016.6 hPa | 0 mm | - | 581 W/m² | - |
| 1778079821 | 8.89° C | 67% | 1016.5 hPa | 0 mm | - | 540 W/m² | - |
| 1778079518 | 8.89° C | 67% | 1016.5 hPa | 0 mm | - | 512 W/m² | - |
| 1778079214 | 8.89° C | 69% | 1016.4 hPa | 0 mm | - | 493 W/m² | - |
| 1778078912 | 8.89° C | 70% | 1016.5 hPa | 0 mm | - | 490 W/m² | - |
| 1778078307 | 8.33° C | 71% | 1016.4 hPa | 0 mm | - | 192 W/m² | - |
| 1778076190 | 6.67° C | 75% | 1016.1 hPa | 0 mm | - | 243 W/m² | - |
| 1778074066 | 6.11° C | 78% | 1015.6 hPa | 0 mm | - | 104 W/m² | - |
| 1778073764 | 6.11° C | 78% | 1015.9 hPa | 0 mm | - | 88 W/m² | - |
| 1778073462 | 6.11° C | 79% | 1016.1 hPa | 0 mm | - | 82 W/m² | - |
| 1778071645 | 5° C | 83% | 1016.5 hPa | 0 mm | - | 21 W/m² | - |
| 1778070435 | 5° C | 84% | 1016.1 hPa | 0 mm | - | 10 W/m² | - |
| 1778069830 | 5° C | 85% | 1016 hPa | 0 mm | - | 5 W/m² | - |
| 1778069225 | 5° C | 84% | 1016 hPa | 0 mm | - | 3 W/m² | - |
| 1778066199 | 6.11° C | 83% | 1015.2 hPa | 0 mm | - | 0 W/m² | - |
| 1778065291 | 6.11° C | 81% | 1015.3 hPa | 0 mm | - | 0 W/m² | - |
* Rain latest hour (hover to see other rain measurements)
** Current wind speed in m/s (hover to see current wind gust speed)